Torna al catalogo

STARLINK-4436

AttivoComunicazioniSSO
NORAD 53479·PAYLOAD·🇺🇸 United States

Lanciato Aug 12, 2022 da Vandenberg Space Force Base

Loading…

Prossimi Passaggi (prossime 24 ore)

TLE

AggiornatoSource: CelesTrak SupGP

Epoca: Sep 14, 2026, 20:59 UTC

1 53479C 22099Q   26257.87479167 -.00021892  00000+0 -67939-3 0  2578
2 53479  97.2865  15.5605 0000919 100.8545 193.2751 15.33459427    13

Traccia STARLINK-4436 in tempo reale con AllMySat

Download on the App Store